Back to catalog

ONEWEB-0184

AliveCommunicationsPO
NORAD 48211·PAYLOAD·🇬🇧 United Kingdom

Launched Apr 25, 2021 from Vostochny Cosmodrome

Loading…

Next Passes (next 24 hours)

TLE

FreshSource: CelesTrak SupGP

Epoch: Sep 14, 2026, 11:02 UTC

1 48211C 21031B   26257.46021250  .00002993  00000+0  80830-2 0  2575
2 48211  87.8891 271.9012 0002003  72.5247  29.4674 13.14497993    16

Track ONEWEB-0184 in real time with AllMySat

Download on the App Store